COSMOS 711

Satellite information

Favourite Embed

Satellite Type and Status

PAYLOADIN ORBIT

Key statistics

Satellite COSMOS 711 at a glance.

Uptime

18335

Days in orbit

Revolutions

≈ 12.5

Per day

Orbit

LEO

Low Earth Orbit

Inclination

74.0

Latest

Satellite identification and parameters

Extended collection of information and parameters for COSMOS 711.

Object identification

Identified? True

Debris? False

Object name: COSMOS 711

International designator: 1975-016A

Object number (NORAD): 7678

Object ID (CCSDS): 7678

Country: COMMONWEALTH OF INDEPENDENT STATES (CIS)

Current information (Y/N): Y

RCS size: MEDIUM

Orbital parameters

Period: 115.47 minutes

Inclination: 74.0038 deg

SMA: 7854.877 km

Apoapsis: 1492.159 km

Periapsis: 1461.325 km

RAAN: 233.6947 deg

Eccentricy: 0.0019627

Argument of periapsis: 163.7914 deg

Mean anomaly: 310.0662 deg

Mean motion: 12.47078178 rev/day

Mean motion (dot): -0.00000023 rev/day2

B* drag term: -0.000052558 1/REarth

Two-line elements (TLE)

Creation date: May 10, 2025, 2:32 a.m.

Reference frame: TEME

Reference center: EARTH

Epoch: May 9, 2025, 5:33 p.m. UTC

TLE line 0: 0 COSMOS 711

TLE line 1: 1 07678U 75016A 25129.73130234 -.00000023 00000-0 -52558-4 0 9995

TLE line 2: 2 07678 74.0038 233.6947 0019627 163.7914 310.0662 12.47078178285033

Live tracking on map

Real-time ground track for satellite COSMOS 711.

In-orbit conjunctions

There are no conjunctions computed for COSMOS 711, at the moment. Check back to stay up to date, as we update our databases every day.

Go to all conjunctions

Associated space launch

Military communications satellites

COSMOS 711 was lifted into orbit during the mission ‘Kosmos-3M | Strela-1M 81-88’, on board a Kosmos-3M space rocket.

The launch took place on Feb. 28, 1975, 2:01 p.m. from 132/2.

For more information about the launch, click the button.

Launch to space Kosmos-3M | Strela-1M 81-88
Kosmos-3M | Strela-1M 81-88

Agency: N/A

Status: Launch Successful

Launch date: Feb. 28, 1975, 2:01 p.m. UTC

Rocket: Kosmos-3M

Launch pad: 132/2

Location: Plesetsk Cosmodrome, Russian Federation

...

Latest news about this satellite

There are no fresh news available about this satellite. Check back as we update our databases every day.


Newsletter sign-up

Weekly statistics, charts and insights to help you stay on top of the space industry.